Simultaneous Nadir Overpasses (SNOs) Predictions

Prediction of SNOs between GOES-15 and METOP-B Satellite Orbit:

Table of predicted SNOs for the next 14.0 days since TLE Epoch: 7/9/2022
Index Date Time (GOES-15) GOES-15 Lat,Lon METOP-B Lat,Lon Distance(km) Time Diff (sec)
1 07/09/2022 18:01:12 -0.16,-128.47 -0.23,-128.16 36.18 80
2 07/11/2022 06:22:51 0.13,-128.42 -0.85,-132.74 492.86 80
3 07/12/2022 05:59:33 0.15,-128.40 0.32,-127.76 74.04 80
4 07/13/2022 18:21:03 -0.12,-128.42 0.77,-132.30 442.98 80
5 07/14/2022 17:57:45 -0.15,-128.41 -0.40,-127.32 123.91 80
6 07/16/2022 06:19:24 0.11,-128.35 -0.66,-131.91 405.61 80
7 07/17/2022 05:56:05 0.15,-128.33 0.45,-126.91 160.97 80
8 07/18/2022 18:17:36 -0.11,-128.34 0.58,-131.47 356.28 80
9 07/19/2022 17:54:16 -0.14,-128.33 -0.54,-126.48 210.66 80
10 07/21/2022 06:15:56 0.09,-128.27 -0.52,-131.07 318.48 80
11 07/22/2022 05:52:36 0.13,-128.25 0.60,-126.07 247.83 80
